Tracking 19193 objects as of 23-Jun-2018
HD Live streaming from Space Station
objects crossing your sky now

FENGYUN 1C DEB

Track FENGYUN 1C DEB now!
10-day predictions


NORAD ID: 36712
Int'l Code: 1999-025EAJ
Perigee: 676.0 km
Apogee: 755.1 km
Inclination: 98.9 °
Period: 98.9 minutes
Semi major axis: 7086 km
RCS: 0.0098 m2 (small)
Launch date: May 10, 1999
Source: People's Republic of China (PRC)
Launch site: Taiyaun Space Center, China (TSC)

Note: This is SATELLITE DEBRIS
aabbcc
Your satellite tracking list
Your tracking list is empty




NASA's NSSDC Master Catalog

Two Line Element Set (TLE):
1 36712U 99025EAJ 18172.42614390 +.00001509 +00000-0 +35368-3 0  9995
2 36712 098.9443 033.7623 0055814 306.2775 053.3272 14.55281272516725
Source of the keplerian elements: AFSPC